This is the latest recevied weather packets stored in our database for station/object IW1RID-3. If no packets are shown the sender has not sent any weather packets the latest 10 day(s).
| Time | Temp. | Humidity | Pressure | Rain* | Wind** | Luminosity | Snow |
|---|---|---|---|---|---|---|---|
| 1788394268 | 21.67° C | 90% | 1075.9 hPa | - | - | - | - |
| 1788391859 | 21.67° C | 91% | 1075.9 hPa | - | - | - | - |
| 1788390654 | 21.67° C | 92% | 1075.9 hPa | - | - | - | - |
| 1788389451 | 22.22° C | 91% | 1075.9 hPa | - | - | - | - |
| 1788388245 | 22.22° C | 91% | 1076 hPa | - | - | - | - |
| 1788387040 | 22.22° C | 91% | 1075.8 hPa | - | - | - | - |
| 1788385835 | 22.78° C | 90% | 1075.8 hPa | - | - | - | - |
| 1788384631 | 22.78° C | 89% | 1075.8 hPa | - | - | - | - |
| 1788383426 | 23.33° C | 87% | 1075.7 hPa | - | - | - | - |
| 1788382222 | 23.33° C | 88% | 1075.6 hPa | - | - | - | - |
| 1788381017 | 23.89° C | 85% | 1075.5 hPa | - | - | - | - |
| 1788379813 | 24.44° C | 82% | 1075.6 hPa | - | - | - | - |
| 1788378608 | 25° C | 80% | 1075.5 hPa | - | - | - | - |
| 1788377404 | 25° C | 80% | 1075.4 hPa | - | - | - | - |
| 1788376199 | 25° C | 78% | 1075.2 hPa | - | - | - | - |
| 1788374994 | 26.11° C | 75% | 1075 hPa | - | - | - | - |
| 1788373790 | 26.11° C | 74% | 1075 hPa | - | - | - | - |
| 1788372584 | 26.67° C | 72% | 1075 hPa | - | - | - | - |
| 1788371379 | 26.11° C | 74% | 1075.2 hPa | - | - | - | - |
| 1788370173 | 26.67° C | 73% | 1075.1 hPa | - | - | - | - |
| 1788368968 | 27.22° C | 72% | 1075.3 hPa | - | - | - | - |
| 1788367762 | 27.22° C | 71% | 1075.4 hPa | - | - | - | - |
| 1788366557 | 28.33° C | 67% | 1075.7 hPa | - | - | - | - |
| 1788365352 | 30° C | 63% | 1075.7 hPa | - | - | - | - |
| 1788364145 | 30° C | 62% | 1075.7 hPa | - | - | - | - |
* Rain since midnight (hover to see other rain measurements)
** Current wind speed in m/s (hover to see current wind gust speed)